Погода в Центральной усадьбе 3-го Госконезавода

Россия / Пермский край     56°21′49″N   55°05′15″E
темп.,
°C
ветер,
м/с
пор.,
м/с
влажн.,
%
обл.,
%
осадки,
мм/ч
давл.,
гПа
погр.,
м
14 июня, пн
пн1423:00+15юв35876 0.5 101868
02:00+14ююв348661 0.0 101752
05:00+13вюв2286100 0.0 101723
08:00+18юв356991 0.0 1017186
11:00+21ю5762100 0.0 1017444
14:00+25ю565366 0.3 1017796
17:00+26ю575575 0.3 10161347
20:00+23ю4975100 0.0 1015299
15 июня, вт
вт1523:00+19ю6138493 0.8 1015300
02:00+17ююз4893100 0.8 1014162
05:00+16юз4997100 2.4 1015292
08:00+17ю3496100 1.3 1015111
11:00+17ю3694100 1.5 1016177
14:00+22ююз237178 0.2 1016524
17:00+24зюз236295 0.4 10151098
20:00+23ю3476100 0.0 101496
16 июня, ср
ср1623:00+18ююз338961 0.1 101530
02:00+17ю229014 0.5 101411
05:00+16ююв229144 0.5 101420
08:00+20ююв36805 0.0 1013222
11:00+26ююв456269 0.0 1012645
14:00+28ююв6753100 0.0 10111124
17:00+26ю71358100 0.0 10101105
20:00+21ю51261100 0.0 1008262
17 июня, чт
чт1723:00+21ююз614649 0.1 1008371
02:00+15ю41093100 1.1 1006215
05:00+16юз499681 1.8 1006271
08:00+17ссз689168 2.4 1008592
11:00+18ссз798091 2.4 1009879
14:00+20с785763 0.0 10111870
17:00+20с69525 0.0 10121837
20:00+18ссз511570 0.0 1013495
18 июня, пт
пт1823:00+12ссз411670 0.0 1015199
02:00+10с37710 0.0 1017104
05:00+8ссв33750 0.0 101936
08:00+13ссв12635 0.0 1021227
11:00+17ссз455524 0.0 10211196
14:00+17ссз4751100 0.0 10211731
17:00+18с464999 0.0 10221617
20:00+17зсз366645 0.0 1022214